Location: Kervinic
(48.4279°N, 4.7373°W)
Time: 16:55:40
(UTC+00:00)

ATLAS 2AS CENTAUR R/B - Pass Details

Date: 09 April 2020
Orbit: 931 x 1280 km, 63.7° (Epoch: 31 May)

Event Time Altitude Azimuth Distance (km) Brightness Sun altitude
Rises 19:54:36 0° 318° (NW) 4,184 7.1 -9.1°
Reaches altitude 10° 19:57:30 10° 316° (NW) 3,178 6.4 -9.6°
Maximum altitude 20:05:00 64° 237° (WSW) 1,267 3.3 -10.7°
Drops below altitude 10° 20:11:52 10° 158° (SSE) 2,915 4.5 -11.7°
Enters shadow 20:12:56 - 157° (SSE) 3,288 4.8 -11.9°
